Weather History for Yakima, WA

Change the Weather History Date:

Wednesday, July 25, 2012

  Actual Average Record
Temperature  
Mean Temperature 74 °F 72 °F  
Max Temperature 93 °F 90 °F 102 °F (2013)
Min Temperature 54 °F 55 °F 42 °F (1949)
Degree Days  
Heating Degree Days 0 0  
Month to date heating degree days 8 19  
Since 1 June heating degree days 120 117  
Since 1 July heating degree days 8 19  
Cooling Degree Days 9 7  
Month to date cooling degree days 244 148  
Year to date cooling degree days 322 233  
Since 1 June cooling degree days 298 213  
Growing Degree Days 21 (Base 50)    
Moisture  
Dew Point 48 °F    
Average Humidity 47    
Maximum Humidity 72    
Minimum Humidity 21    
Precipitation  
Precipitation 0.00 in 0.01 in 0.29 in (2011)
Month to date precipitation 0.04 0.19  
Year to date precipitation 5.26 4.48  
Snow  
Snow 0.00 in 0.00 in 0.00 in (2002)
Month to date snowfall 0.0 0.0  
Year to date snowfall 21.5 8.6  
Since 1 July snowfall 0.0 0.0  
Snow Depth 0.00 in    
Sea Level Pressure  
Sea Level Pressure 29.92 in    
Wind  
Wind Speed 7 mph (SW)    
Max Wind Speed 12 mph    
Max Gust Speed 67 mph    
Visibility 10 miles    
Events      
T = Trace of Precipitation, MM = Missing Value Source: NWS Daily Summary

Daily Weather History Graph

Daily Weather History Graph

Search for Another Location

Airport:

Trip Planner

Search our weather history database for the weather conditions in past years. The results will help you decide how hot, cold, wet, or windy it might be!

Date:

Astronomy

Jul. 25, 2012 Rise Set
Actual Time 5:35 AM PDT 8:41 PM PDT
Civil Twilight 4:59 AM PDT 9:17 PM PDT
Nautical Twilight 4:12 AM PDT 10:03 PM PDT
Astronomical Twilight 3:15 AM PDT 11:00 PM PDT
Moon 1:18 PM PDT (7/25) 11:37 PM PDT (7/25)
Length of Visible Light 16h 18m
Length of Day
15h 06m
Waxing Crescent, 43% of the Moon is Illuminated
Jul 25
Waxing Crescent
Jul 26
First Quarter
Aug 1
Full
Aug 9
Last Quarter
Aug 17
New

Hourly Weather History & Observations

Time (PDT) Temp. Dew Point Humidity Pressure Visibility Wind Dir Wind Speed Gust Speed Precip Events Conditions
12:53 AM 63.0 °F 46.9 °F 56% 29.92 in 10.0 mi West 6.9 mph - N/A   Clear
1:53 AM 57.9 °F 48.0 °F 70% 29.92 in 10.0 mi West 5.8 mph - N/A   Clear
2:53 AM 57.9 °F 46.9 °F 67% 29.93 in 10.0 mi West 9.2 mph - N/A   Clear
3:53 AM 61.0 °F 48.0 °F 62% 29.94 in 10.0 mi West 8.1 mph - N/A   Clear
4:27 AM 60.8 °F 48.2 °F 63% 29.96 in 10.0 mi WSW 6.9 mph 66.7 mph N/A   Squalls
4:53 AM 55.0 °F 46.9 °F 74% 29.95 in 10.0 mi West 8.1 mph - N/A   Clear
5:53 AM 55.0 °F 46.9 °F 74% 29.96 in 10.0 mi West 9.2 mph - N/A   Clear
6:53 AM 62.1 °F 48.9 °F 62% 29.96 in 10.0 mi West 5.8 mph - N/A   Clear
7:53 AM 68.0 °F 50.0 °F 52% 29.97 in 10.0 mi West 6.9 mph - N/A   Clear
8:53 AM 73.0 °F 51.1 °F 46% 29.97 in 10.0 mi West 6.9 mph - N/A   Clear
9:53 AM 78.1 °F 52.0 °F 40% 29.96 in 10.0 mi Variable 5.8 mph - N/A   Clear
10:53 AM 82.9 °F 50.0 °F 32% 29.96 in 10.0 mi West 3.5 mph - N/A   Clear
11:53 AM 88.0 °F 48.0 °F 25% 29.94 in 10.0 mi SSE 5.8 mph - N/A   Partly Cloudy
12:53 PM 90.0 °F 45.0 °F 21% 29.93 in 10.0 mi SE 9.2 mph - N/A   Partly Cloudy
1:53 PM - - N/A% 29.93 in 10.0 mi SE 11.5 mph - N/A   Partly Cloudy
2:53 PM - - N/A% 29.91 in 10.0 mi East 6.9 mph - N/A   Partly Cloudy
3:53 PM - - N/A% 29.89 in 10.0 mi East 6.9 mph - N/A   Partly Cloudy
4:53 PM - - N/A% 29.88 in 10.0 mi South 5.8 mph - N/A   Scattered Clouds
5:53 PM - - N/A% 29.86 in 10.0 mi ESE 5.8 mph - N/A   Partly Cloudy
6:53 PM - - N/A% 29.84 in 10.0 mi SE 3.5 mph - N/A   Partly Cloudy
7:53 PM - - N/A% 29.84 in 10.0 mi South 4.6 mph - N/A   Partly Cloudy
8:53 PM - - N/A% 29.85 in 10.0 mi SW 5.8 mph - N/A   Partly Cloudy
9:53 PM - - N/A% 29.87 in 10.0 mi West 4.6 mph - N/A   Clear
10:53 PM - - N/A% 29.89 in 10.0 mi WSW 6.9 mph - N/A   Clear
11:53 PM - - N/A% 29.89 in 10.0 mi West 4.6 mph - N/A   Clear